Claremore, OK

11:22 AM CDT on March 25, 2017 (GMT -0500)
Claremore Regional

Weather History for KGCM - December, 2012

Change the Weather History Date:

Monday, December 3, 2012

  Actual Average (KTUL) Record (KTUL)
Temperature  
Mean Temperature 66 °F -  
Max Temperature 73 °F 53 °F 77 °F (1916)
Min Temperature 55 °F 31 °F 14 °F (2006)
Cooling Degree Days 1    
Growing Degree Days 16 (Base 50)    
Moisture  
Dew Point 56 °F    
Average Humidity 70    
Maximum Humidity 94    
Minimum Humidity 53    
Precipitation  
Precipitation 0.27 in - - ()
Sea Level Pressure  
Sea Level Pressure 29.91 in    
Wind  
Wind Speed 17 mph (South)    
Max Wind Speed 33 mph    
Max Gust Speed 44 mph    
Visibility 10 miles    
Events Rain , Thunderstorm    
Averages and records for this station are not official NWS values.
T = Trace of Precipitation, MM = Missing Value Source: NWS Daily Summary

Daily Weather History Graph

Daily Weather History Graph

Search for Another Location

Airport or City:

Trip Planner

Search our weather history database for the weather conditions in past years. The results will help you decide how hot, cold, wet, or windy it might be!

Date:

Astronomy

Dec. 03, 2012 Rise Set
Actual Time 7:17 AM CST 5:06 PM CST
Civil Twilight 6:48 AM CST 5:35 PM CST
Nautical Twilight 6:16 AM CST 6:07 PM CST
Astronomical Twilight 5:45 AM CST 6:38 PM CST
Moon 9:49 PM CST (12/3) 10:44 AM CST (12/3)
Length of Visible Light 10h 46m
Length of Day
9h 49m
Waning Gibbous, 78% of the Moon is Illuminated
Dec 3
Waning Gibbous
Dec 6
Last Quarter
Dec 13
New
Dec 19
First Quarter
Dec 28
Full

Hourly Weather History & Observations

Time (CST) Temp. Dew Point Humidity Pressure Visibility Wind Dir Wind Speed Gust Speed Precip Events Conditions
12:15 AM 64.4 °F 57.2 °F 77% 29.96 in 10.0 mi South 12.7 mph - N/A   Clear
12:35 AM 64.4 °F 57.2 °F 77% 29.95 in 10.0 mi SSE 13.8 mph 18.4 mph N/A   Clear
12:55 AM 64.4 °F 57.2 °F 77% 29.95 in 10.0 mi South 13.8 mph 21.9 mph N/A   Clear
1:35 AM 64.4 °F 57.2 °F 77% 29.94 in 10.0 mi South 13.8 mph 21.9 mph N/A   Clear
1:55 AM 64.4 °F 57.2 °F 77% 29.95 in 10.0 mi South 13.8 mph 20.7 mph N/A   Clear
2:15 AM 64.4 °F 57.2 °F 77% 29.94 in 10.0 mi South 16.1 mph 21.9 mph N/A   Clear
2:35 AM 64.4 °F 55.4 °F 73% 29.95 in 10.0 mi South 15.0 mph - N/A   Clear
2:55 AM 64.4 °F 57.2 °F 77% 29.95 in 10.0 mi South 11.5 mph 18.4 mph N/A   Clear
3:15 AM 64.4 °F 57.2 °F 77% 29.94 in 10.0 mi South 13.8 mph 18.4 mph N/A   Scattered Clouds
3:35 AM 64.4 °F 57.2 °F 77% 29.93 in 10.0 mi South 15.0 mph 21.9 mph N/A   Scattered Clouds
3:55 AM 64.4 °F 57.2 °F 77% 29.92 in 10.0 mi South 19.6 mph 26.5 mph N/A   Scattered Clouds
4:15 AM 64.4 °F 57.2 °F 77% 29.92 in 10.0 mi South 17.3 mph 20.7 mph N/A   Mostly Cloudy
4:35 AM 64.4 °F 57.2 °F 77% 29.91 in 10.0 mi South 19.6 mph 28.8 mph N/A   Scattered Clouds
4:55 AM 64.4 °F 57.2 °F 77% 29.91 in 10.0 mi South 20.7 mph 28.8 mph N/A   Clear
5:15 AM 64.4 °F 57.2 °F 77% 29.90 in 10.0 mi South 18.4 mph 29.9 mph N/A   Clear
5:35 AM 64.4 °F 57.2 °F 77% 29.89 in 10.0 mi South 21.9 mph 28.8 mph N/A   Clear
5:55 AM 64.4 °F 57.2 °F 77% 29.89 in 10.0 mi South 17.3 mph 28.8 mph N/A   Clear
6:15 AM 64.4 °F 57.2 °F 77% 29.89 in 10.0 mi South 20.7 mph 31.1 mph N/A   Clear
6:35 AM 64.4 °F 57.2 °F 77% 29.89 in 10.0 mi South 24.2 mph 28.8 mph N/A   Clear
6:55 AM 64.4 °F 55.4 °F 73% 29.90 in 10.0 mi South 19.6 mph 27.6 mph N/A   Clear
7:15 AM 62.6 °F 55.4 °F 77% 29.90 in 10.0 mi South 19.6 mph 26.5 mph N/A   Clear
7:35 AM 62.6 °F 55.4 °F 77% 29.90 in 10.0 mi South 17.3 mph 24.2 mph N/A   Clear
7:55 AM 62.6 °F 55.4 °F 77% 29.90 in 10.0 mi South 24.2 mph 31.1 mph N/A   Scattered Clouds
8:15 AM 64.4 °F 55.4 °F 73% 29.90 in 10.0 mi South 26.5 mph 36.8 mph N/A   Scattered Clouds
9:15 AM 64.4 °F 55.4 °F 73% 29.92 in 10.0 mi South 25.3 mph 34.5 mph N/A   Overcast
9:35 AM 64.4 °F 55.4 °F 73% 29.92 in 10.0 mi South 26.5 mph 33.4 mph N/A   Overcast
10:15 AM 66.2 °F 57.2 °F 73% 29.94 in 10.0 mi South 21.9 mph 27.6 mph N/A   Mostly Cloudy
10:35 AM 68.0 °F 57.2 °F 68% 29.93 in 10.0 mi South 24.2 mph 32.2 mph N/A   Mostly Cloudy
10:55 AM 68.0 °F 57.2 °F 68% 29.93 in 10.0 mi South 24.2 mph 34.5 mph N/A   Mostly Cloudy
11:15 AM 68.0 °F 57.2 °F 68% 29.93 in 10.0 mi South 25.3 mph 34.5 mph N/A   Mostly Cloudy
11:35 AM 68.0 °F 57.2 °F 68% 29.92 in 10.0 mi South 31.1 mph 36.8 mph N/A   Mostly Cloudy
11:55 AM 69.8 °F 57.2 °F 64% 29.90 in 10.0 mi South 27.6 mph 36.8 mph N/A   Scattered Clouds
12:15 PM 69.8 °F 57.2 °F 64% 29.90 in 10.0 mi SSW 25.3 mph 35.7 mph N/A   Mostly Cloudy
12:35 PM 69.8 °F 57.2 °F 64% 29.88 in 10.0 mi South 33.4 mph 43.7 mph N/A   Mostly Cloudy
12:55 PM 69.8 °F 55.4 °F 60% 29.87 in 10.0 mi SSW 31.1 mph 42.6 mph N/A   Mostly Cloudy
1:15 PM 71.6 °F 55.4 °F 57% 29.86 in 10.0 mi SSW 29.9 mph 38.0 mph N/A   Scattered Clouds
1:35 PM 71.6 °F 55.4 °F 57% 29.86 in 10.0 mi SSW 27.6 mph 35.7 mph N/A   Scattered Clouds
1:55 PM 71.6 °F 55.4 °F 57% 29.86 in 10.0 mi SSW 28.8 mph 38.0 mph N/A   Mostly Cloudy
2:15 PM 71.6 °F 55.4 °F 57% 29.85 in 10.0 mi South 26.5 mph 35.7 mph N/A   Mostly Cloudy
2:35 PM 73.4 °F 55.4 °F 53% 29.84 in 10.0 mi SSW 24.2 mph 34.5 mph N/A   Scattered Clouds
2:55 PM 73.4 °F 55.4 °F 53% 29.84 in 10.0 mi SSW 21.9 mph 27.6 mph N/A   Clear
3:15 PM 73.4 °F 55.4 °F 53% 29.84 in 10.0 mi SSW 26.5 mph 32.2 mph N/A   Clear
3:35 PM 73.4 °F 55.4 °F 53% 29.83 in 10.0 mi SSW 27.6 mph 33.4 mph N/A   Clear
3:55 PM 73.4 °F 55.4 °F 53% 29.83 in 10.0 mi South 20.7 mph 31.1 mph N/A   Clear
4:15 PM 73.4 °F 55.4 °F 53% 29.85 in 10.0 mi SSW 21.9 mph 32.2 mph N/A   Clear
4:35 PM 71.6 °F 55.4 °F 57% 29.86 in 10.0 mi SSW 18.4 mph 26.5 mph N/A   Clear
4:55 PM 71.6 °F 55.4 °F 57% 29.87 in 10.0 mi SSW 12.7 mph 24.2 mph N/A   Clear
5:15 PM 69.8 °F 55.4 °F 60% 29.89 in 10.0 mi SSW 5.8 mph - N/A   Scattered Clouds
5:35 PM 68.0 °F 55.4 °F 64% 29.90 in 10.0 mi South 5.8 mph - N/A   Scattered Clouds
5:55 PM 69.8 °F 55.4 °F 60% 29.90 in 10.0 mi South 6.9 mph - N/A   Scattered Clouds
6:15 PM 69.8 °F 55.4 °F 60% 29.91 in 10.0 mi South 10.4 mph - N/A   Scattered Clouds
6:55 PM 68.0 °F 55.4 °F 64% 29.91 in 10.0 mi South 9.2 mph - N/A   Clear
7:15 PM 68.0 °F 53.6 °F 60% 29.91 in 10.0 mi South 8.1 mph - N/A   Clear
7:35 PM 64.4 °F 55.4 °F 73% 29.92 in 10.0 mi SSE 6.9 mph - N/A   Scattered Clouds
7:55 PM 64.4 °F 55.4 °F 73% 29.91 in 10.0 mi SSE 9.2 mph - N/A   Scattered Clouds
8:15 PM 64.4 °F 55.4 °F 73% 29.92 in 10.0 mi SSE 5.8 mph - N/A   Scattered Clouds
8:35 PM 64.4 °F 55.4 °F 73% 29.92 in 10.0 mi South 10.4 mph - N/A   Scattered Clouds
8:55 PM 64.4 °F 55.4 °F 73% 29.91 in 10.0 mi South 10.4 mph - N/A   Scattered Clouds
9:15 PM 66.2 °F 55.4 °F 68% 29.92 in 10.0 mi South 11.5 mph - N/A Thunderstorm Scattered Clouds
9:35 PM 66.2 °F 55.4 °F 68% 29.93 in 10.0 mi South 10.4 mph - N/A Thunderstorm Scattered Clouds
9:55 PM 66.2 °F 55.4 °F 68% 29.95 in 10.0 mi NW 8.1 mph - N/A Rain Light Rain
10:15 PM 66.2 °F 57.2 °F 73% 29.98 in 7.0 mi West 15.0 mph - 0.05 in Rain , Thunderstorm Heavy Thunderstorms and Rain
10:35 PM 62.6 °F 59.0 °F 88% 29.98 in 4.0 mi WSW 6.9 mph - 0.18 in Rain Heavy Rain
10:55 PM 60.8 °F 59.0 °F 94% 29.99 in 2.5 mi WNW 5.8 mph - 0.27 in Rain Heavy Rain
11:15 PM 59.0 °F 55.4 °F 88% 30.00 in 7.0 mi NW 5.8 mph - N/A Rain , Thunderstorm Light Thunderstorms and Rain
11:35 PM 55.4 °F 51.8 °F 88% 30.00 in 10.0 mi North 8.1 mph - N/A   Overcast